Цветногорск

Россия / Республика Хакасия     54°14′23″N   90°27′03″E
темп.,
°C
ветер,
м/с
пор.,
м/с
влажн.,
%
обл.,
%
осадки,
мм/ч
давл.,
гПа
погр.,
м
10 мая, пн
пн1001:00+1зсз11775 0.0 102110
04:000зсз228774 0.0 102213
07:00+2ссз359198 0.1 1023501
10:00+4ссз347298 0.1 1024784
13:00+7ссв336395 0.1 10231131
16:00+8св345698 0.0 10221367
19:00+8в35575 0.1 10211149
22:00+4вюв22755 0.0 102111
11 мая, вт
вт1101:00+3в11823 0.0 101910
04:00+2св118666 0.0 101810
07:00+4ссв1180100 0.0 101796
10:00+8всв3557100 0.0 1016784
13:00+12в5642100 0.0 10151296
16:00+13всв4633100 0.0 10131908
19:00+13всв2339100 0.0 1013225
22:00+9зсз1153100 0.0 101410
12 мая, ср
ср1201:00+7сз116975 0.0 101510
04:00+5сз227991 0.0 101613
07:00+7ссз247522 0.0 1017229
10:00+10ссв57615 0.0 10161005
13:00+12ссв774974 0.1 10151895
16:00+12с684139 0.0 10152020
19:00+11ссв573846 0.0 10162013
22:00+6всв11515 0.0 101810
13 мая, чт
чт1301:00+5зсз11545 0.0 102010
04:00+4зюз11595 0.0 102010
07:00+6ю005327 0.0 1021101
10:00+9св22415 0.0 10201561
13:00+12св32345 0.0 10181879
16:00+13всв32312 0.0 10171864
19:00+12в43331 0.0 1017731
22:00+7ю36412 0.0 1017106
14 мая, пт
пт1401:00+6ю33445 0.0 101633
04:00+5ю334834 0.0 101538
07:00+8ююз36515 0.0 1013158
10:00+14зюз453489 0.0 10102473
13:00+15з6738100 0.0 10082268
16:00+11зсз81159100 0.6 10101570
19:00+4ссз101389100 1.9 1015946
22:00+3сз6117245 0.5 1019871